Voltar ao catálogo

FENGYUN 1C DEB

AtivoPO
NORAD 32418·DEBRIS·🇨🇳 China

Lançado May 10, 1999 de Taiyuan Satellite Launch Center

Loading…

Próximas Passagens (próximas 24 horas)

TLE

ObsoletoSource: Space-Track

Época: Sep 2, 2026, 08:41 UTC

1 32418U 99025DAE 26245.36197075  .00002530  00000-0  12947-2 0  9995
2 32418  98.1893  95.5580 0223507   9.7395 350.8001 14.04230796666878

Acompanhe FENGYUN 1C DEB em tempo real com AllMySat

Download on the App Store